This demonstration page uses our WeatherBlox Daily Observations layout. Learn more.

Left ArrowRight Arrow

36.17497, -115.13722

Hourly Observations for September 29, 2020

Temp ( °F °C ) Dew Point ( °F °C ) Humidity (%) Winds ( mph kmh ) Pressure ( in mb ) Visibility ( mi km ) Precip ( " mm )
12:53 am 00:53 Clear 74 23.3 25 -3.9 16 16 W 5 7 30.08 1019 10 16 N/A
1:53 am 01:53 Clear 73 22.8 26 -3.3 17 17 N N/A 30.09 1019 10 16 N/A
2:53 am 02:53 Clear 71 21.7 27 -2.8 19 19 WNW 5 7 30.09 1019 10 16 N/A
3:53 am 03:53 Clear 70 21.1 25 -3.9 18 18 NW 6 9 30.09 1019 10 16 N/A
4:53 am 04:53 Clear 72 22.2 19 -7.2 13 13 NW 9 15 30.10 1019 10 16 N/A
5:53 am 05:53 Clear 69 20.6 24 -4.4 18 18 W 7 11 30.12 1020 10 16 N/A
6:53 am 06:53 Sunny 68 20 28 -2.2 22 22 W 6 9 30.14 1021 10 16 N/A
7:53 am 07:53 Sunny 73 22.8 21 -6.1 14 14 WNW 5 7 30.15 1021 10 16 N/A
8:53 am 08:53 Sunny 79 26.1 20 -6.7 11 11 NNW 9 15 30.15 1021 10 16 N/A
9:53 am 09:53 Sunny 82 27.8 20 -6.7 10 10 NNW 6 9 30.16 1021 10 16 N/A
10:53 am 10:53 Sunny 84 28.9 20 -6.7 9 9 SE 3 6 30.15 1021 10 16 N/A
11:53 am 11:53 Sunny 87 30.6 21 -6.1 9 9 VRB 3 6 30.14 1021 10 16 N/A
12:53 pm 12:53 Sunny 90 32.2 21 -6.1 8 8 VRB 3 6 30.11 1020 10 16 N/A
1:53 pm 13:53 Sunny 90 32.2 22 -5.6 8 8 SSE 7 11 30.08 1019 10 16 N/A
2:53 pm 14:53 Sunny 92 33.3 22 -5.6 8 8 SE 6 9 30.05 1018 10 16 N/A
3:53 pm 15:53 Sunny 92 33.3 21 -6.1 7 7 SE 5 7 30.03 1017 10 16 N/A
4:53 pm 16:53 Sunny 93 33.9 21 -6.1 7 7 VRB 3 6 30.01 1016 10 16 N/A
5:53 pm 17:53 Sunny 92 33.3 22 -5.6 8 8 N N/A 30.01 1016 10 16 N/A
6:53 pm 18:53 Clear 90 32.2 22 -5.6 8 8 N N/A 30.02 1017 10 16 N/A
7:53 pm 19:53 Clear 85 29.4 27 -2.8 12 12 WNW 5 7 30.03 1017 10 16 N/A
8:53 pm 20:53 Clear 81 27.2 32 undefined 17 17 WNW 7 11 30.04 1017 10 16 N/A
9:53 pm 21:53 Clear 78 25.6 29 -1.7 16 16 WNW 7 11 30.04 1017 10 16 N/A
10:53 pm 22:53 Clear 76 24.4 30 -1.1 18 18 WNW 6 9 30.04 1017 10 16 N/A
11:53 pm 23:53 Clear 76 24.4 28 -2.2 17 17 WSW 3 6 30.04 1017 10 16 N/A

Powered by AerisWeather